RYR29UZ LOWW-EGSS

Flight info

Callsign RYR29UZ
Flight time 1h 53m
Altitude 36000
Route BUWUT DCT DITIS DCT OKG DCT VELIS DCT SWALM DCT NOGRO M40 RINIS
Aircraft B738/M-SDFGIJ1LRWYZ/SB1

Departure

Time 2026-05-05 12:35
Airport Vienna International Airport (LOWW)

Arrival

Time 2026-05-05 14:29
Airport London Stansted Airport (EGSS)
Time Latitude Longitude Altitude Speed Heading
2026-05-05 11:51 48.11953 16.55587 608 ft 0 kts 64°
2026-05-05 12:24 48.11946 16.55566 626 ft 4 kts 64°
2026-05-05 12:24 48.11934 16.55529 625 ft 4 kts 64°
2026-05-05 12:24 48.11923 16.55493 618 ft 4 kts 66°
2026-05-05 12:25 48.11912 16.55456 625 ft 4 kts 73°
2026-05-05 12:25 48.11908 16.55417 622 ft 4 kts 102°
2026-05-05 12:25 48.11910 16.55405 619 ft 1 kts 116°
2026-05-05 12:28 48.11910 16.55407 620 ft 1 kts 118°
2026-05-05 12:28 48.11893 16.55445 613 ft 7 kts 117°
2026-05-05 12:29 48.11870 16.55524 620 ft 8 kts 112°
2026-05-05 12:29 48.11844 16.55606 618 ft 9 kts 116°
2026-05-05 12:29 48.11813 16.55704 618 ft 12 kts 116°
2026-05-05 12:29 48.11772 16.55829 613 ft 15 kts 116°
2026-05-05 12:30 48.11723 16.55980 621 ft 17 kts 116°
2026-05-05 12:30 48.11658 16.56177 615 ft 25 kts 116°
2026-05-05 12:30 48.11573 16.56438 617 ft 20 kts 114°
2026-05-05 12:30 48.11512 16.56630 612 ft 21 kts 115°
2026-05-05 12:31 48.11451 16.56815 618 ft 20 kts 116°
2026-05-05 12:31 48.11392 16.56994 612 ft 17 kts 116°
2026-05-05 12:31 48.11342 16.57149 623 ft 16 kts 115°
2026-05-05 12:31 48.11294 16.57298 619 ft 16 kts 116°
2026-05-05 12:32 48.11246 16.57441 617 ft 15 kts 116°
2026-05-05 12:32 48.11203 16.57580 612 ft 14 kts 104°
2026-05-05 12:32 48.11261 16.57682 612 ft 14 kts 19°
2026-05-05 12:32 48.11353 16.57664 615 ft 13 kts 344°
2026-05-05 12:33 48.11453 16.57621 615 ft 19 kts 344°
2026-05-05 12:33 48.11589 16.57564 609 ft 22 kts 344°
2026-05-05 12:33 48.11732 16.57503 609 ft 21 kts 343°
2026-05-05 12:33 48.11832 16.57533 612 ft 16 kts 63°
2026-05-05 12:34 48.11862 16.57692 613 ft 16 kts 84°
2026-05-05 12:34 48.11848 16.57818 609 ft 8 kts 118°
2026-05-05 12:34 48.11820 16.57870 609 ft 7 kts 141°
2026-05-05 12:34 48.11726 16.57925 617 ft 33 kts 165°
2026-05-05 12:35 48.11249 16.58125 617 ft 106 kts 164°
2026-05-05 12:35 48.10351 16.58505 771 ft 150 kts 163°
2026-05-05 12:35 48.09372 16.58934 1775 ft 144 kts 166°
2026-05-05 12:35 48.08394 16.59331 2669 ft 150 kts 168°
2026-05-05 12:36 48.07412 16.59723 3652 ft 146 kts 168°
2026-05-05 12:36 48.06377 16.60189 4194 ft 172 kts 157°
2026-05-05 12:36 48.05519 16.61556 4853 ft 193 kts 123°
2026-05-05 12:36 48.05322 16.63620 5510 ft 217 kts 84°
2026-05-05 12:37 48.06085 16.65712 5893 ft 247 kts 47°
2026-05-05 12:37 48.07375 16.67511 6479 ft 257 kts 45°
2026-05-05 12:37 48.08725 16.69406 6901 ft 279 kts 45°
2026-05-05 12:37 48.10174 16.71509 7417 ft 294 kts 46°
2026-05-05 12:38 48.11632 16.73670 8362 ft 298 kts 46°
2026-05-05 12:38 48.13090 16.75852 9277 ft 301 kts 46°
2026-05-05 12:38 48.14700 16.77871 10160 ft 306 kts 27°
2026-05-05 12:38 48.16764 16.78786 10708 ft 321 kts
2026-05-05 12:39 48.19052 16.78454 11020 ft 342 kts 348°
2026-05-05 12:39 48.21477 16.77781 11302 ft 365 kts 347°
2026-05-05 12:39 48.24016 16.77039 11844 ft 377 kts 347°
2026-05-05 12:39 48.26618 16.76304 12651 ft 381 kts 347°
2026-05-05 12:40 48.29247 16.75593 13442 ft 387 kts 347°
2026-05-05 12:40 48.31906 16.74890 14211 ft 389 kts 348°
2026-05-05 12:40 48.34561 16.74065 15014 ft 389 kts 339°
2026-05-05 12:40 48.36987 16.72318 15773 ft 387 kts 328°
2026-05-05 12:41 48.39352 16.70361 16540 ft 390 kts 329°
2026-05-05 12:41 48.41751 16.68419 17281 ft 393 kts 327°
2026-05-05 12:41 48.43853 16.65853 18031 ft 388 kts 307°
2026-05-05 12:41 48.45324 16.62487 18647 ft 386 kts 291°
2026-05-05 12:42 48.46306 16.58728 19271 ft 387 kts 288°
2026-05-05 12:42 48.47214 16.54948 19877 ft 390 kts 288°
2026-05-05 12:42 48.48140 16.51034 20486 ft 393 kts 287°
2026-05-05 12:42 48.49054 16.47182 21001 ft 398 kts 288°
2026-05-05 12:43 48.50006 16.43233 21557 ft 402 kts 288°
2026-05-05 12:43 48.50971 16.39270 22118 ft 405 kts 289°
2026-05-05 12:43 48.51953 16.35260 22670 ft 408 kts 288°
2026-05-05 12:43 48.52943 16.31225 23178 ft 413 kts 288°
2026-05-05 12:44 48.53942 16.27140 23628 ft 417 kts 289°
2026-05-05 12:44 48.54948 16.23029 24099 ft 419 kts 289°
2026-05-05 12:44 48.55958 16.18886 24585 ft 420 kts 289°
2026-05-05 12:44 48.56970 16.14723 25024 ft 423 kts 289°
2026-05-05 12:45 48.58026 16.10554 25430 ft 426 kts 291°
2026-05-05 12:45 48.59173 16.06474 25849 ft 429 kts 292°
2026-05-05 12:45 48.60383 16.02335 26267 ft 432 kts 292°
2026-05-05 12:45 48.61606 15.98181 26717 ft 433 kts 292°
2026-05-05 12:46 48.62825 15.94004 27120 ft 435 kts 292°
2026-05-05 12:46 48.64041 15.89790 27498 ft 438 kts 292°
2026-05-05 12:46 48.65251 15.85561 27916 ft 440 kts 292°
2026-05-05 12:46 48.66464 15.81296 28282 ft 442 kts 292°
2026-05-05 12:47 48.67681 15.77002 28636 ft 445 kts 292°
2026-05-05 12:47 48.68901 15.72689 28996 ft 447 kts 292°
2026-05-05 12:47 48.70131 15.68337 29335 ft 449 kts 292°
2026-05-05 12:47 48.71359 15.63984 29756 ft 449 kts 292°
2026-05-05 12:48 48.72582 15.59645 30223 ft 447 kts 291°
2026-05-05 12:48 48.73785 15.55368 30623 ft 447 kts 291°
2026-05-05 12:48 48.75000 15.51036 30987 ft 446 kts 291°
2026-05-05 12:48 48.76212 15.46708 31382 ft 446 kts 291°
2026-05-05 12:49 48.77420 15.42388 31798 ft 444 kts 291°
2026-05-05 12:49 48.78624 15.38078 32220 ft 442 kts 291°
2026-05-05 12:49 48.79822 15.33780 32643 ft 441 kts 291°
2026-05-05 12:49 48.81151 15.29607 33031 ft 442 kts 300°
2026-05-05 12:50 48.82917 15.25784 33415 ft 442 kts 304°
2026-05-05 12:50 48.84777 15.22073 33820 ft 440 kts 305°
2026-05-05 12:50 48.86617 15.18363 34143 ft 439 kts 304°
2026-05-05 12:50 48.88394 15.14661 34442 ft 439 kts 303°
2026-05-05 12:51 48.90185 15.10852 34728 ft 438 kts 302°
2026-05-05 12:51 48.91930 15.07044 35020 ft 437 kts 302°
2026-05-05 12:51 48.93646 15.03239 35349 ft 436 kts 302°
2026-05-05 12:51 48.95351 14.99432 35639 ft 435 kts 302°
2026-05-05 12:52 48.97036 14.95664 35912 ft 435 kts 302°
2026-05-05 12:52 48.98737 14.91862 36196 ft 435 kts 302°
2026-05-05 12:52 49.00439 14.88062 36495 ft 434 kts 302°
2026-05-05 12:52 49.02143 14.84255 36768 ft 433 kts 301°
2026-05-05 12:53 49.03842 14.80458 37016 ft 433 kts 301°
2026-05-05 12:53 49.05537 14.76668 37280 ft 433 kts 301°
2026-05-05 12:53 49.07230 14.72878 37551 ft 432 kts 301°
2026-05-05 12:53 49.08919 14.69092 37793 ft 432 kts 301°
2026-05-05 12:54 49.14010 14.57645 37789 ft 432 kts 301°
2026-05-05 12:55 49.17366 14.50075 37800 ft 428 kts 301°
2026-05-05 12:55 49.20690 14.42554 37799 ft 426 kts 301°
2026-05-05 12:56 49.23993 14.35056 37802 ft 424 kts 301°
2026-05-05 12:56 49.27259 14.27625 37800 ft 424 kts 301°
2026-05-05 12:57 49.30550 14.20112 37803 ft 425 kts 301°
2026-05-05 12:57 49.33848 14.12563 37809 ft 427 kts 301°
2026-05-05 12:58 49.37163 14.04954 37803 ft 429 kts 301°
2026-05-05 12:58 49.40486 13.97307 37805 ft 431 kts 300°
2026-05-05 12:59 49.43819 13.89615 37806 ft 433 kts 300°
2026-05-05 12:59 49.47162 13.81875 37806 ft 435 kts 300°
2026-05-05 13:00 49.52172 13.70237 37801 ft 435 kts 300°
2026-05-05 13:01 49.58806 13.54747 37796 ft 433 kts 300°
2026-05-05 13:01 49.62107 13.47006 37800 ft 431 kts 300°
2026-05-05 13:02 49.65390 13.39281 37804 ft 430 kts 300°
2026-05-05 13:02 49.68668 13.31550 37802 ft 429 kts 300°
2026-05-05 13:03 49.71924 13.23845 37798 ft 428 kts 299°
2026-05-05 13:03 49.75166 13.16151 37804 ft 427 kts 299°
2026-05-05 13:04 49.78407 13.08437 37798 ft 427 kts 299°
2026-05-05 13:04 49.81645 13.00707 37787 ft 428 kts 299°
2026-05-05 13:05 49.84855 12.93022 37803 ft 428 kts 299°
2026-05-05 13:05 49.88091 12.85253 37790 ft 429 kts 299°
2026-05-05 13:06 49.91329 12.77456 37791 ft 431 kts 299°
2026-05-05 13:06 49.94571 12.69625 37803 ft 432 kts 298°
2026-05-05 13:07 49.97820 12.61756 37797 ft 433 kts 298°
2026-05-05 13:07 50.01069 12.53861 37797 ft 433 kts 298°
2026-05-05 13:08 50.04312 12.45961 37803 ft 434 kts 298°
2026-05-05 13:08 50.07224 12.37787 37784 ft 428 kts 286°
2026-05-05 13:09 50.09131 12.29041 37797 ft 427 kts 284°
2026-05-05 13:09 50.10668 12.21742 37811 ft 427 kts 284°
2026-05-05 13:10 50.12852 12.11494 37806 ft 428 kts 284°
2026-05-05 13:10 50.14441 12.04107 37825 ft 428 kts 284°
2026-05-05 13:11 50.16322 11.95359 37816 ft 429 kts 284°
2026-05-05 13:11 50.18216 11.86518 37830 ft 429 kts 284°
2026-05-05 13:12 50.20100 11.77686 37831 ft 429 kts 284°
2026-05-05 13:12 50.21962 11.68912 37824 ft 429 kts 284°
2026-05-05 13:13 50.23847 11.59991 37830 ft 429 kts 284°
2026-05-05 13:13 50.25712 11.51130 37824 ft 429 kts 284°
2026-05-05 13:14 50.27561 11.42304 37813 ft 429 kts 284°
2026-05-05 13:14 50.29411 11.33432 37834 ft 429 kts 283°
2026-05-05 13:15 50.31255 11.24551 37821 ft 429 kts 283°
2026-05-05 13:15 50.33092 11.15667 37825 ft 429 kts 283°
2026-05-05 13:16 50.34912 11.06823 37827 ft 429 kts 283°
2026-05-05 13:16 50.36735 10.97923 37824 ft 429 kts 283°
2026-05-05 13:17 50.38552 10.89017 37829 ft 429 kts 283°
2026-05-05 13:17 50.40363 10.80095 37832 ft 430 kts 283°
2026-05-05 13:18 50.42169 10.71158 37823 ft 430 kts 283°
2026-05-05 13:18 50.43967 10.62221 37829 ft 430 kts 283°
2026-05-05 13:19 50.45763 10.53263 37841 ft 431 kts 283°
2026-05-05 13:19 50.47558 10.44276 37836 ft 431 kts 283°
2026-05-05 13:20 50.49356 10.35333 37827 ft 432 kts 283°
2026-05-05 13:20 50.51160 10.26340 37826 ft 432 kts 283°
2026-05-05 13:21 50.52956 10.17333 37834 ft 432 kts 282°
2026-05-05 13:21 50.54748 10.08305 37845 ft 433 kts 282°
2026-05-05 13:22 50.56536 9.99245 37821 ft 434 kts 282°
2026-05-05 13:22 50.58311 9.90214 37829 ft 433 kts 282°
2026-05-05 13:23 50.60092 9.81112 37833 ft 434 kts 282°
2026-05-05 13:23 50.61844 9.72112 37834 ft 434 kts 282°
2026-05-05 13:24 50.63622 9.62935 37827 ft 434 kts 282°
2026-05-05 13:24 50.65377 9.53834 37820 ft 435 kts 282°
2026-05-05 13:25 50.67129 9.44706 37818 ft 434 kts 282°
2026-05-05 13:25 50.68873 9.35575 37824 ft 434 kts 282°
2026-05-05 13:26 50.70595 9.26519 37821 ft 434 kts 282°
2026-05-05 13:26 50.72389 9.17424 37821 ft 435 kts 284°
2026-05-05 13:27 50.74503 9.08451 37819 ft 436 kts 286°
2026-05-05 13:27 50.76680 8.99520 37817 ft 435 kts 286°
2026-05-05 13:28 50.78830 8.90558 37819 ft 435 kts 285°
2026-05-05 13:28 50.80936 8.81640 37817 ft 435 kts 285°
2026-05-05 13:29 50.83040 8.72652 37818 ft 436 kts 285°
2026-05-05 13:29 50.85136 8.63653 37816 ft 436 kts 285°
2026-05-05 13:30 50.87221 8.54671 37833 ft 435 kts 285°
2026-05-05 13:30 50.89305 8.45652 37844 ft 436 kts 285°
2026-05-05 13:31 50.91373 8.36665 37838 ft 437 kts 285°
2026-05-05 13:31 50.93466 8.27530 37831 ft 438 kts 285°
2026-05-05 13:32 50.95526 8.18505 37840 ft 439 kts 285°
2026-05-05 13:32 50.97599 8.09382 37832 ft 440 kts 285°
2026-05-05 13:33 50.99664 8.00255 37835 ft 440 kts 285°
2026-05-05 13:33 51.01711 7.91167 37837 ft 440 kts 285°
2026-05-05 13:34 51.03780 7.81944 37830 ft 440 kts 285°
2026-05-05 13:34 51.05824 7.72794 37837 ft 439 kts 285°
2026-05-05 13:35 51.07862 7.63627 37842 ft 439 kts 285°
2026-05-05 13:35 51.09874 7.54536 37848 ft 438 kts 285°
2026-05-05 13:36 51.11891 7.45383 37851 ft 438 kts 284°
2026-05-05 13:36 51.13899 7.36229 37846 ft 438 kts 284°
2026-05-05 13:37 51.15898 7.27078 37854 ft 437 kts 284°
2026-05-05 13:37 51.17891 7.17915 37872 ft 437 kts 284°
2026-05-05 13:38 51.19877 7.08735 37867 ft 439 kts 284°
2026-05-05 13:38 51.21865 6.99516 37875 ft 439 kts 284°
2026-05-05 13:39 51.23842 6.90304 37887 ft 438 kts 284°
2026-05-05 13:39 51.25799 6.81142 37895 ft 437 kts 284°
2026-05-05 13:40 51.27753 6.71953 37883 ft 436 kts 284°
2026-05-05 13:40 51.29695 6.62776 37884 ft 435 kts 284°
2026-05-05 13:41 51.31627 6.53606 37886 ft 435 kts 284°
2026-05-05 13:41 51.33542 6.44477 37885 ft 434 kts 284°
2026-05-05 13:42 51.35461 6.35282 37889 ft 434 kts 284°
2026-05-05 13:42 51.37371 6.26092 37877 ft 435 kts 284°
2026-05-05 13:43 51.39276 6.16884 37899 ft 436 kts 284°
2026-05-05 13:43 51.41166 6.07705 37903 ft 437 kts 284°
2026-05-05 13:44 51.43064 5.98446 37905 ft 438 kts 284°
2026-05-05 13:44 51.44961 5.89149 37902 ft 439 kts 284°
2026-05-05 13:45 51.46852 5.79836 37905 ft 439 kts 284°
2026-05-05 13:45 51.48739 5.70496 37909 ft 440 kts 284°
2026-05-05 13:46 51.50621 5.61141 37908 ft 441 kts 284°
2026-05-05 13:46 51.52488 5.51814 37905 ft 441 kts 284°
2026-05-05 13:47 51.54358 5.42426 37904 ft 441 kts 284°
2026-05-05 13:47 51.56222 5.33029 37921 ft 441 kts 284°
2026-05-05 13:48 51.58077 5.23624 37907 ft 441 kts 284°
2026-05-05 13:48 51.59925 5.14214 37909 ft 441 kts 284°
2026-05-05 13:49 51.61764 5.04800 37913 ft 441 kts 284°
2026-05-05 13:49 51.63595 4.95381 37914 ft 441 kts 284°
2026-05-05 13:50 51.65418 4.85960 37911 ft 441 kts 284°
2026-05-05 13:50 51.67234 4.76524 37909 ft 441 kts 284°
2026-05-05 13:51 51.69041 4.67091 37907 ft 440 kts 284°
2026-05-05 13:51 51.70829 4.57710 37903 ft 440 kts 284°
2026-05-05 13:52 51.72617 4.48282 37905 ft 440 kts 284°
2026-05-05 13:52 51.74407 4.38798 37908 ft 441 kts 284°
2026-05-05 13:53 51.76184 4.29329 37912 ft 441 kts 284°
2026-05-05 13:53 51.77957 4.19840 37911 ft 441 kts 284°
2026-05-05 13:54 51.79721 4.10348 37914 ft 441 kts 284°
2026-05-05 13:54 51.81469 4.00895 37923 ft 442 kts 284°
2026-05-05 13:55 51.83219 3.91379 37925 ft 442 kts 284°
2026-05-05 13:55 51.84965 3.81838 37857 ft 444 kts 284°
2026-05-05 13:56 51.85843 3.77014 37340 ft 447 kts 284°
2026-05-05 13:56 51.86729 3.72145 36754 ft 445 kts 284°
2026-05-05 13:56 51.87588 3.67414 36201 ft 442 kts 283°
2026-05-05 13:56 51.88450 3.62646 35594 ft 442 kts 283°
2026-05-05 13:57 51.89311 3.57874 34943 ft 442 kts 283°
2026-05-05 13:57 51.90171 3.53089 34312 ft 442 kts 283°
2026-05-05 13:57 51.91026 3.48326 33832 ft 438 kts 283°
2026-05-05 13:57 51.91871 3.43608 33292 ft 434 kts 283°
2026-05-05 13:58 51.92704 3.38941 32827 ft 429 kts 283°
2026-05-05 13:58 51.93527 3.34318 32347 ft 425 kts 283°
2026-05-05 13:58 51.94340 3.29746 31908 ft 420 kts 283°
2026-05-05 13:58 51.94872 3.26743 31604 ft 417 kts 283°
2026-05-05 13:59 51.96238 3.17717 30719 ft 407 kts 274°
2026-05-05 13:59 51.96361 3.13178 30287 ft 400 kts 264°
2026-05-05 14:00 51.95790 3.04289 29355 ft 392 kts 261°
2026-05-05 14:00 51.95475 2.99928 28919 ft 388 kts 261°
2026-05-05 14:00 51.95171 2.95608 28467 ft 384 kts 261°
2026-05-05 14:00 51.94877 2.91317 28037 ft 380 kts 261°
2026-05-05 14:01 51.94591 2.87073 27600 ft 377 kts 261°
2026-05-05 14:01 51.94315 2.82932 27176 ft 374 kts 261°
2026-05-05 14:01 51.94036 2.78755 26744 ft 372 kts 261°
2026-05-05 14:01 51.93758 2.74596 26322 ft 369 kts 261°
2026-05-05 14:02 51.93479 2.70467 25916 ft 368 kts 261°
2026-05-05 14:02 51.93198 2.66342 25489 ft 367 kts 261°
2026-05-05 14:02 51.92915 2.62208 25075 ft 372 kts 261°
2026-05-05 14:02 51.92623 2.57992 24649 ft 381 kts 261°
2026-05-05 14:03 51.92327 2.53712 24182 ft 381 kts 261°
2026-05-05 14:03 51.92036 2.49512 23742 ft 379 kts 261°
2026-05-05 14:03 51.91737 2.45217 23270 ft 377 kts 261°
2026-05-05 14:03 51.91443 2.40998 22786 ft 374 kts 261°
2026-05-05 14:04 51.91152 2.36880 22351 ft 371 kts 261°
2026-05-05 14:04 51.90860 2.32760 21947 ft 367 kts 261°
2026-05-05 14:04 51.90662 2.28657 21563 ft 364 kts 265°
2026-05-05 14:04 51.90569 2.24559 21194 ft 363 kts 266°
2026-05-05 14:05 51.90504 2.20485 20823 ft 360 kts 266°
2026-05-05 14:05 51.90434 2.16434 20465 ft 359 kts 266°
2026-05-05 14:05 51.90353 2.12392 20106 ft 359 kts 266°
2026-05-05 14:05 51.90262 2.08329 19748 ft 361 kts 266°
2026-05-05 14:06 51.90166 2.04276 19389 ft 360 kts 266°
2026-05-05 14:06 51.90068 2.00238 19015 ft 358 kts 266°
2026-05-05 14:06 51.89968 1.96221 18658 ft 356 kts 266°
2026-05-05 14:06 51.89865 1.92217 18301 ft 355 kts 267°
2026-05-05 14:07 51.90031 1.88257 17885 ft 354 kts 284°
2026-05-05 14:07 51.90968 1.84591 17588 ft 350 kts 296°
2026-05-05 14:07 51.92090 1.81173 17259 ft 347 kts 298°
2026-05-05 14:07 51.93251 1.77758 16961 ft 344 kts 298°
2026-05-05 14:08 51.94400 1.74378 16654 ft 342 kts 298°
2026-05-05 14:08 51.95537 1.71008 16370 ft 339 kts 298°
2026-05-05 14:08 51.96660 1.67643 16055 ft 338 kts 298°
2026-05-05 14:08 51.97769 1.64297 15770 ft 336 kts 298°
2026-05-05 14:09 51.98867 1.60965 15480 ft 335 kts 297°
2026-05-05 14:09 51.99962 1.57630 15190 ft 334 kts 297°
2026-05-05 14:09 52.01055 1.54294 14901 ft 333 kts 297°
2026-05-05 14:09 52.02139 1.50979 14605 ft 333 kts 297°
2026-05-05 14:10 52.03221 1.47662 14318 ft 332 kts 297°
2026-05-05 14:10 52.04300 1.44352 14037 ft 331 kts 297°
2026-05-05 14:10 52.05375 1.41050 13732 ft 331 kts 297°
2026-05-05 14:10 52.06447 1.37751 13418 ft 330 kts 297°
2026-05-05 14:11 52.07515 1.34463 13104 ft 328 kts 297°
2026-05-05 14:11 52.08575 1.31198 12811 ft 326 kts 297°
2026-05-05 14:11 52.09625 1.27956 12526 ft 324 kts 297°
2026-05-05 14:11 52.10669 1.24726 12232 ft 317 kts 297°
2026-05-05 14:12 52.11410 1.21515 11931 ft 303 kts 279°
2026-05-05 14:12 52.11412 1.18152 11751 ft 289 kts 259°
2026-05-05 14:12 52.10955 1.15067 11565 ft 282 kts 256°
2026-05-05 14:12 52.10437 1.12001 11389 ft 291 kts 255°
2026-05-05 14:13 52.09877 1.08749 11182 ft 297 kts 255°
2026-05-05 14:13 52.09319 1.05499 10966 ft 298 kts 255°
2026-05-05 14:13 52.08772 1.02291 10751 ft 297 kts 255°
2026-05-05 14:13 52.08221 0.99037 10520 ft 294 kts 255°
2026-05-05 14:14 52.07685 0.95857 10323 ft 289 kts 255°
2026-05-05 14:14 52.07158 0.92730 10106 ft 284 kts 255°
2026-05-05 14:14 52.06641 0.89655 9910 ft 279 kts 255°
2026-05-05 14:14 52.06173 0.86875 9711 ft 275 kts 255°
2026-05-05 14:15 52.05670 0.83891 9509 ft 272 kts 255°
2026-05-05 14:15 52.05168 0.80915 9308 ft 273 kts 256°
2026-05-05 14:15 52.04665 0.77937 9119 ft 275 kts 256°
2026-05-05 14:15 52.04159 0.74949 8921 ft 275 kts 256°
2026-05-05 14:16 52.03653 0.71956 8724 ft 275 kts 256°
2026-05-05 14:16 52.03146 0.68965 8535 ft 274 kts 256°
2026-05-05 14:16 52.02641 0.66005 8331 ft 270 kts 256°
2026-05-05 14:16 52.02143 0.63086 8131 ft 266 kts 256°
2026-05-05 14:17 52.01656 0.60222 7914 ft 261 kts 257°
2026-05-05 14:17 52.01426 0.57287 7538 ft 263 kts 269°
2026-05-05 14:17 52.01377 0.54332 7109 ft 267 kts 270°
2026-05-05 14:17 52.01324 0.51251 6670 ft 273 kts 270°
2026-05-05 14:18 52.01252 0.48181 6214 ft 279 kts 269°
2026-05-05 14:18 52.01153 0.45050 6015 ft 273 kts 267°
2026-05-05 14:18 52.00983 0.42049 5979 ft 261 kts 266°
2026-05-05 14:18 52.00807 0.39192 5966 ft 248 kts 266°
2026-05-05 14:19 52.00640 0.36449 5977 ft 243 kts 266°
2026-05-05 14:19 52.00477 0.33723 5995 ft 241 kts 266°
2026-05-05 14:19 52.00316 0.30985 5811 ft 247 kts 266°
2026-05-05 14:19 52.00081 0.28218 5621 ft 248 kts 252°
2026-05-05 14:20 51.99160 0.25895 5443 ft 245 kts 226°
2026-05-05 14:20 51.97940 0.23997 5266 ft 243 kts 223°
2026-05-05 14:20 51.96708 0.22136 5096 ft 242 kts 223°
2026-05-05 14:20 51.95480 0.20264 4923 ft 243 kts 224°
2026-05-05 14:21 51.94258 0.18382 4742 ft 243 kts 224°
2026-05-05 14:21 51.93032 0.16492 4557 ft 242 kts 224°
2026-05-05 14:21 51.91810 0.14602 4366 ft 242 kts 224°
2026-05-05 14:21 51.90610 0.12744 4200 ft 241 kts 224°
2026-05-05 14:22 51.89378 0.10837 4026 ft 241 kts 223°
2026-05-05 14:22 51.88182 0.08989 3842 ft 241 kts 224°
2026-05-05 14:22 51.86965 0.07111 3665 ft 241 kts 224°
2026-05-05 14:22 51.85767 0.05269 3556 ft 234 kts 223°
2026-05-05 14:23 51.84577 0.03537 3442 ft 228 kts 221°
2026-05-05 14:23 51.83405 0.01856 3324 ft 222 kts 221°
2026-05-05 14:23 51.82255 0.00205 3211 ft 222 kts 222°
2026-05-05 14:23 51.81098 -0.01453 3105 ft 222 kts 221°
2026-05-05 14:24 51.79740 -0.02591 3008 ft 219 kts 186°
2026-05-05 14:24 51.78309 -0.02254 2998 ft 205 kts 151°
2026-05-05 14:24 51.77182 -0.00916 3033 ft 202 kts 131°
2026-05-05 14:24 51.76412 0.00963 3006 ft 199 kts 107°
2026-05-05 14:25 51.76211 0.03081 2974 ft 184 kts 82°
2026-05-05 14:25 51.76552 0.05014 2996 ft 178 kts 63°
2026-05-05 14:25 51.77247 0.06648 3003 ft 177 kts 45°
2026-05-05 14:25 51.78145 0.08041 3000 ft 180 kts 42°
2026-05-05 14:26 51.79073 0.09419 2986 ft 181 kts 42°
2026-05-05 14:26 51.80014 0.10783 2988 ft 182 kts 41°
2026-05-05 14:26 51.80941 0.12109 2952 ft 178 kts 42°
2026-05-05 14:26 51.81860 0.13482 2598 ft 179 kts 43°
2026-05-05 14:27 51.82747 0.14821 2230 ft 173 kts 43°
2026-05-05 14:27 51.83642 0.16166 1705 ft 177 kts 43°
2026-05-05 14:27 51.84552 0.17538 1134 ft 180 kts 43°
2026-05-05 14:27 51.85433 0.18866 924 ft 162 kts 43°
2026-05-05 14:28 51.86198 0.20059 729 ft 145 kts 43°
2026-05-05 14:28 51.86889 0.21060 568 ft 127 kts 41°
2026-05-05 14:28 51.87536 0.22042 401 ft 131 kts 41°
2026-05-05 14:28 51.88193 0.23018 334 ft 117 kts 43°
2026-05-05 14:29 51.88664 0.23726 337 ft 70 kts 43°
2026-05-05 14:29 51.88953 0.24160 340 ft 49 kts 43°
2026-05-05 14:29 51.89079 0.24458 339 ft 28 kts 65°
2026-05-05 14:29 51.89139 0.24690 347 ft 20 kts 68°
2026-05-05 14:30 51.89166 0.24842 346 ft 6 kts 99°
2026-05-05 14:30 51.89157 0.24891 354 ft 9 kts 103°
2026-05-05 14:30 51.89193 0.25005 348 ft 15 kts 46°
2026-05-05 14:30 51.89237 0.25134 352 ft 11 kts 94°
2026-05-05 14:31 51.89204 0.25238 349 ft 10 kts 120°
2026-05-05 14:31 51.89217 0.25334 352 ft 7 kts 51°
2026-05-05 14:31 51.89233 0.25390 349 ft 3 kts 95°
2026-05-05 14:31 51.89228 0.25421 348 ft 3 kts 103°
2026-05-05 14:32 51.89223 0.25456 350 ft 3 kts 102°
2026-05-05 14:32 51.89220 0.25481 348 ft 1 kts 102°
2026-05-05 14:32 51.89220 0.25483 348 ft 0 kts 102°